Total_Precipitation_Accumulation
0.08 0.08 0.09 0.09 0.10 0.12 0.16 0.24 0.29 0.22 0.13 0.07 0.08 0.11 0.20 0.23 0.25 0.30 0.37 0.26 0.24 0.29 0.29 0.31 0.36 0.45 0.47 0.38 0.30 0.24 0.21 0.19 0.19 0.21 0.28 0.36 0.45 0.54
0.10 0.10 0.10 0.10 0.10 0.11 0.13 0.17 0.26 0.32 0.27 0.12 0.09 0.14 0.20 0.20 0.25 0.33 0.35 0.32 0.37 0.60 0.71 0.63 0.57 0.69 0.75 0.61 0.46 0.35 0.29 0.25 0.24 0.25 0.27 0.32 0.39 0.47
0.09 0.09 0.10 0.11 0.13 0.13 0.15 0.19 0.23 0.33 0.37 0.21 0.14 0.18 0.24 0.27 0.31 0.37 0.38 0.41 0.53 0.94 1.21 1.39 1.13 1.00 1.03 0.88 0.69 0.50 0.40 0.35 0.33 0.35 0.36 0.39 0.42 0.44
0.11 0.13 0.13 0.13 0.14 0.15 0.19 0.22 0.26 0.35 0.48 0.40 0.29 0.32 0.36 0.38 0.48 0.50 0.47 0.42 0.50 0.93 1.32 1.65 1.61 1.38 1.38 1.19 0.98 0.71 0.53 0.44 0.42 0.42 0.42 0.43 0.45 0.49
0.13 0.15 0.15 0.18 0.19 0.22 0.29 0.33 0.35 0.40 0.51 0.53 0.42 0.45 0.50 0.57 0.68 0.63 0.53 0.48 0.43 0.72 1.19 1.53 1.71 1.77 1.87 1.71 1.39 1.01 0.72 0.55 0.47 0.46 0.46 0.46 0.45 0.43
0.15 0.19 0.22 0.27 0.30 0.34 0.36 0.35 0.39 0.44 0.49 0.55 0.52 0.56 0.62 0.68 0.69 0.69 0.58 0.49 0.47 0.56 0.99 1.49 1.82 1.89 2.09 2.22 1.93 1.41 0.98 0.69 0.53 0.46 0.41 0.37 0.35 0.35
0.15 0.17 0.22 0.30 0.35 0.34 0.32 0.32 0.40 0.49 0.52 0.59 0.61 0.60 0.58 0.64 0.64 0.56 0.49 0.43 0.39 0.44 0.63 1.09 1.76 2.06 2.10 2.21 2.16 1.69 1.23 0.89 0.65 0.52 0.43 0.37 0.34 0.33
0.18 0.17 0.16 0.19 0.19 0.20 0.27 0.32 0.40 0.54 0.73 0.81 0.71 0.58 0.46 0.45 0.46 0.46 0.46 0.42 0.37 0.29 0.33 0.68 1.28 1.92 2.16 2.23 2.23 1.73 1.24 0.92 0.74 0.62 0.54 0.46 0.40 0.38
0.20 0.18 0.13 0.09 0.12 0.15 0.21 0.27 0.35 0.51 0.71 0.93 0.88 0.59 0.51 0.44 0.47 0.49 0.48 0.49 0.44 0.28 0.29 0.54 0.98 1.62 1.96 2.13 2.06 1.52 1.11 0.88 0.76 0.67 0.59 0.54 0.48 0.43
0.16 0.15 0.14 0.10 0.14 0.21 0.23 0.24 0.30 0.43 0.58 0.67 0.85 0.68 0.53 0.51 0.51 0.48 0.49 0.49 0.39 0.24 0.26 0.48 0.87 1.37 1.55 1.61 1.68 1.35 1.05 0.86 0.75 0.66 0.60 0.56 0.52 0.50
0.10 0.10 0.09 0.10 0.17 0.31 0.37 0.42 0.50 0.63 0.75 0.92 1.06 1.02 0.89 0.78 0.63 0.53 0.49 0.41 0.34 0.27 0.29 0.45 0.72 0.98 1.14 1.21 1.24 1.21 1.02 0.87 0.76 0.68 0.61 0.56 0.50 0.51
0.05 0.06 0.10 0.14 0.23 0.40 0.52 0.60 0.68 0.83 0.80 0.88 1.04 1.09 0.92 0.89 0.91 0.72 0.53 0.37 0.30 0.31 0.30 0.39 0.54 0.63 0.90 1.05 1.00 0.92 0.87 0.93 0.88 0.77 0.68 0.57 0.44 0.39
0.05 0.09 0.16 0.23 0.31 0.50 0.67 0.70 0.86 0.99 0.92 0.80 0.73 0.72 0.76 0.76 0.74 0.71 0.54 0.36 0.26 0.24 0.24 0.32 0.45 0.47 0.57 0.79 0.92 0.95 0.87 0.84 0.78 0.81 0.82 0.70 0.54 0.42
0.12 0.18 0.28 0.34 0.39 0.58 0.72 0.90 1.12 1.18 0.94 0.75 0.56 0.48 0.47 0.52 0.56 0.52 0.43 0.32 0.26 0.22 0.22 0.27 0.39 0.45 0.41 0.47 0.79 0.98 0.99 0.96 0.85 0.79 0.75 0.74 0.64 0.59
0.17 0.29 0.36 0.39 0.52 0.74 0.98 1.16 1.23 1.12 0.95 0.70 0.50 0.45 0.40 0.39 0.42 0.45 0.42 0.32 0.26 0.23 0.23 0.25 0.31 0.40 0.37 0.39 0.62 0.77 0.91 1.12 1.03 0.89 0.73 0.63 0.57 0.53
0.16 0.29 0.41 0.49 0.63 0.87 1.06 1.16 1.14 1.04 0.86 0.64 0.54 0.52 0.47 0.42 0.41 0.37 0.32 0.25 0.23 0.25 0.24 0.24 0.29 0.33 0.38 0.40 0.48 0.62 0.72 1.04 1.08 0.84 0.70 0.65 0.57 0.49
0.18 0.23 0.31 0.44 0.62 0.80 0.94 1.01 0.98 0.91 0.80 0.59 0.49 0.52 0.53 0.47 0.43 0.35 0.26 0.18 0.17 0.19 0.22 0.25 0.27 0.28 0.30 0.35 0.43 0.55 0.64 0.80 0.85 0.67 0.50 0.52 0.56 0.49
0.20 0.23 0.33 0.47 0.66 0.82 0.92 0.93 0.85 0.77 0.66 0.53 0.46 0.44 0.44 0.41 0.39 0.32 0.22 0.16 0.15 0.15 0.16 0.19 0.18 0.17 0.16 0.26 0.40 0.43 0.47 0.58 0.59 0.47 0.32 0.33 0.48 0.51
0.18 0.28 0.39 0.51 0.66 0.79 0.85 0.83 0.78 0.69 0.59 0.49 0.43 0.40 0.36 0.34 0.29 0.25 0.20 0.16 0.14 0.12 0.12 0.11 0.11 0.10 0.09 0.21 0.41 0.44 0.41 0.43 0.38 0.33 0.27 0.24 0.36 0.45
0.24 0.37 0.46 0.52 0.58 0.66 0.71 0.75 0.77 0.70 0.59 0.50 0.46 0.41 0.35 0.29 0.23 0.19 0.15 0.13 0.11 0.09 0.09 0.08 0.08 0.08 0.07 0.12 0.27 0.40 0.38 0.31 0.23 0.20 0.19 0.20 0.28 0.34
0.31 0.40 0.47 0.51 0.52 0.53 0.57 0.62 0.65 0.64 0.57 0.51 0.47 0.44 0.36 0.27 0.19 0.13 0.10 0.08 0.07 0.07 0.07 0.06 0.06 0.06 0.04 0.04 0.11 0.21 0.25 0.25 0.18 0.13 0.11 0.11 0.14 0.14
0.32 0.39 0.44 0.47 0.46 0.46 0.46 0.48 0.51 0.52 0.50 0.47 0.44 0.41 0.33 0.23 0.16 0.12 0.09 0.08 0.06 0.05 0.04 0.04 0.04 0.03 0.03 0.04 0.07 0.11 0.12 0.13 0.12 0.10 0.09 0.06 0.05 0.08
0.30 0.32 0.35 0.38 0.38 0.37 0.37 0.38 0.41 0.44 0.46 0.47 0.44 0.39 0.29 0.21 0.16 0.12 0.08 0.05 0.03 0.02 0.02 0.02 0.02 0.01 0.01 0.02 0.03 0.05 0.06 0.06 0.05 0.05 0.08 0.07 0.05 0.05